Regional Weather Roundup
Issued by NWS

Home | Current Version | Previous Version | Text Only | Print | Product List | Glossary On
Versions: 1 2 3 4 5 6 7 8 9 10 11 12 13 14 15 16 17 18 19 20 21 22 23 24 25 26 27 28 29 30 31 32 33 34 35 36 37 38 39 40 41 42 43 44 45 46 47 48 49 50
000
ASUS43 KDTX 241410
RWRMI
MICHIGAN HOURLY REGIONAL WEATHER ROUNDUP
NATIONAL WEATHER SERVICE DETROIT/PONTIAC MI
1000 AM EDT WED AUG 24 2016

NOTE: "FAIR" INDICATES FEW OR NO CLOUDS BELOW 12,000 FEET WITH NO
SIGNIFICANT WEATHER AND/OR OBSTRUCTION TO VISIBILITY.

MIZ047>049-052>055-059>063-066>070-074>076-081>083-241500-
SOUTHEAST LOWER MICHIGAN

CITY           SKY/WX    TMP DP  RH WIND       PRES   REMARKS
ADRIAN         SUNNY     71  64  78 S12       30.13F
ALMA           CLOUDY    71  65  83 S9        30.05F
ANN ARBOR      MOSUNNY   72  62  71 S10G18    30.12F
BAD AXE        SUNNY     72  63  72 S12       30.09F
CARO           SUNNY     74  64  69 S8        30.07F
DETROIT CITY   SUNNY     76  65  68 S13G22    30.12F
DETROIT        MOSUNNY   75  63  66 S10       30.12F
FLINT          SUNNY     77  61  57 S15G22    30.08F
GROSSE ILE     PTSUNNY   75  66  72 S15       30.12F
HILLSDALE      CLOUDY    69  63  79 S6        30.12S
HOWELL         SUNNY     73  62  68 S12G17    30.10F

CITY           SKY/WX    TMP DP  RH WIND       PRES   REMARKS
JACKSON        CLOUDY    73  64  73 S10       30.10F
LAMBERTVILLE   CLOUDY    74  63  68 S6        30.13F
LANSING        MOSUNNY   74  62  66 S13       30.07F
LAPEER         FAIR      73  61  64 S8G23     30.10F
MASON          PTSUNNY   73  63  70 S8        30.08F
MONROE         CLOUDY    72  64  76 S10       30.12F
MT. CLEMENS    MOSUNNY   76  66  71 S15       30.10F
PONTIAC        MOSUNNY   73  61  65 S12       30.11F
PORT HURON     SUNNY     73  66  78 S9        30.13F
TRI CITIES     CLOUDY    71  63  75 S10       30.06F
MIDLAND        CLOUDY    69  61  75 S7        30.04F
TROY           SUNNY     76  61  58 S14       30.13F
SAGINAW HB     CLOUDY    73  63  68 S13       30.05F
$$
MIZ043>046-050>051-056>058-064>065-071>073-077>080-241500-
SOUTHWEST LOWER MICHIGAN

CITY           SKY/WX    TMP DP  RH WIND       PRES   REMARKS
BATTLE CREEK   CLOUDY    71  66  84 S14G22    30.08S
BENTON HARBOR  CLOUDY    75  66  73 S15G22    30.04R
BIG RAPIDS     CLOUDY    71  65  82 S8        29.99F
COLDWATER      MOSUNNY   73  65  74 S7        30.10S
FREMONT        CLOUDY    71  65  82 S12       29.98F
HOLLAND        CLOUDY    73  66  78 S13       30.03S
GRAND RAPIDS   CLOUDY    73  64  73 S13       30.03F
IONIA          FAIR      73  61  66 S12G18    30.05R
KALAMAZOO      CLOUDY    74  64  71 S12       30.06S
LUDINGTON      CLOUDY    72  69  90 S17       29.92F
MARSHALL       PTSUNNY   72  64  78 S10G17    30.08F
MOUNT PLEASANT CLOUDY    69  63  81 S6        30.02F
MUSKEGON       CLOUDY    73  68  84 S14G24    30.00S
SOUTH HAVEN    PTSUNNY   76  68  77 S13G18    30.03S
$$
MIZ016>042-241500-
NORTHERN LOWER MICHIGAN

CITY           SKY/WX    TMP DP  RH WIND       PRES   REMARKS
ALPENA         CLOUDY    75  61  61 S13       30.02F
BEAVER ISLAND  RAIN      65  65  98 SE8       29.92F
BELLAIRE       CLOUDY    67  63  86 S12G18    29.92F
CADILLAC       PTSUNNY   69  63  82 S15G21    29.97F
CHARLEVOIX     CLOUDY    64  64  97 E9        29.94F
FRANKFORT      CLOUDY    71  66  84 S14G24    29.88F
GAYLORD        CLOUDY    66  59  78 S14       29.98F
GRAYLING       CLOUDY    66  63  91 SE9       29.99F
HARBOR SPRINGS HVY RAIN  64  63  96 NE7       29.94F
HOUGHTON LAKE  CLOUDY    64  60  87 S12       30.02F
MANISTEE       CLOUDY    72  68  87 S12G21    29.90F
OSCODA         MOSUNNY   73  62  68 S13G24    30.05F
PELLSTON       TSTM      63  61  93 SE8       29.95F VSB 1/2
ROGERS CITY    CLOUDY    69  61  75 S12       30.00F
TRAVERSE CITY  CLOUDY    72  66  81 S9        29.89F
$$
MIZ007>008-015-241500-
EASTERN UPPER MICHIGAN

CITY           SKY/WX    TMP DP  RH WIND       PRES   REMARKS
KINROSS        LGT RAIN  64  62  93 SE12      29.96
MACKINAC ISLAN RAIN      64  64  97 S13G22    29.95F
NEWBERRY       LGT RAIN  66  65  97 S14       29.92F
S. S. MARIE    LGT RAIN  66  63  90 SE6       29.96F
$$
MIZ004>006-011>014-085-241500-
CENTRAL UPPER MICHIGAN

CITY           SKY/WX    TMP DP  RH WIND       PRES   REMARKS
MANISTIQUE     RAIN      67  64  93 SE10G16   29.88S
ESCANABA       CLOUDY    69  68  96 S8        29.85F
MENOMINEE      CLOUDY   N/A N/A N/A SW7       29.84F
SAWYER-GWINN   CLOUDY    66  64  94 S9        29.85F
$$
MIZ001>003-009>011-084-241500-
WESTERN UPPER MICHIGAN

CITY           SKY/WX    TMP DP  RH WIND       PRES   REMARKS
IRON MOUNTAIN  LGT RAIN  67  65  93 SE5       29.83F FOG
HOUGHTON       CLOUDY    68  62  81 SE5       29.83F
COPPER HARBOR    N/A     70  65  84 VRB5      29.80F
IRONWOOD       CLOUDY    68  66  94 S6        29.83S
$$

ABBREVIATIONS USED IN REMARKS
   TC - TEMPERATURE IN CELSIUS
  WCI - WIND CHILL INDEX
   HX - HEAT INDEX
  VSB - VISIBILITY





USA.gov is the U.S. government's official web portal to all federal, state and local government web resources and services.